Flag for Germany Weather past 2 weeks in Zweibrücken, Rhineland-Palatinate, Germany

Now
52 °F

Sunny.


Feels Like: 52 °F
Forecast: 47 / 61 °F
Wind: 2 mph from North

Location: Zweibrucken - Rheinland-Pfalz

Current Time: Aug 22, 2014 at 10:06:59 AM

Latest Report: Aug 22, 2014 at 9:20 AM


Visibility: 10 mi

Pressure: 30.01 "Hg

Humidity: 88%

Dew point: 48 °F

Location of ZweibrückenLocation

Historic Weather in Zweibrücken — Graph

°F

Zweibrücken temperature yesterday

Maximum temperature yesterday: 64 °F (at 4:50 PM)
Minimum temperature yesterday: 45 °F (at 6:50 AM)
Average temperature yesterday: 57 °F

Past Weeks' High & Low Weather Summary

 TemperatureHumidityPressure
High77 °F (Aug 8, 11:50 AM)100% (Aug 8, 2:50 AM)30.15 "Hg (Aug 8, 2:50 AM)
Low45 °F (Aug 21, 6:50 AM)45% (Aug 21, 3:50 PM)29.65 "Hg (Aug 13, 1:20 PM)
Average61 °F76%29.95 "Hg
* Reported Aug 7 8:20 AM — Aug 22 8:50 AM, Zweibrücken, Weather by CustomWeather, © 2014

Note: Actual official high and low records may vary slightly from our data, if they occured in-between our weather recording intervals... More about our weather records

Advertising

Zweibrücken weather history for previous 24 hours

 ConditionsComfort  
Time TempWeatherWind HumidityBarometerVisibility
8:50 AM
Aug 22
50 °FSunny.2 mph88%30.01 "Hg10 mi
8:20 AM50 °FClear.1 mph88%30.01 "Hg10 mi
7:50 AM46 °FClear.3 mph93%30.01 "Hg10 mi
7:20 AM46 °FClear.2 mph93%30.01 "Hg10 mi
6:50 AM46 °FClear.2 mph93%30.01 "Hg10 mi
5:20 AM46 °FClear.1 mph93%30.01 "Hg10 mi
4:50 AM46 °FClear.2 mph93%30.01 "Hg10 mi
3:50 AM46 °FClear.2 mph93%30.04 "Hg10 mi
3:20 AM46 °FClear.2 mph93%30.04 "Hg10 mi
2:50 AM48 °FClear.1 mph87%30.04 "Hg10 mi
12:50 AM50 °FClear.2 mph82%30.04 "Hg10 mi
12:20 AM50 °FClear.2 mph82%30.04 "Hg10 mi
9:50 PM
Aug 21
57 °FSunny.2 mph59%30.04 "Hg10 mi
9:20 PM59 °FSunny.3 mph55%30.04 "Hg10 mi
8:50 PM59 °FPassing clouds.5 mph55%30.04 "HgN/A
8:20 PM61 °FSunny.6 mph52%30.04 "Hg10 mi
7:50 PM61 °FSunny.6 mph52%30.04 "Hg10 mi
7:20 PM63 °FSunny.9 mph49%30.04 "Hg10 mi
6:50 PM63 °FPassing clouds.6 mph49%30.04 "HgN/A
6:20 PM63 °FPassing clouds.8 mph49%30.04 "HgN/A
5:50 PM63 °FSunny.9 mph45%30.04 "Hg10 mi
5:20 PM64 °FPassing clouds.9 mph46%30.04 "HgN/A
4:50 PM64 °FPassing clouds.7 mph46%30.04 "HgN/A
4:20 PM63 °FPassing clouds.12 mph49%30.04 "HgN/A
3:50 PM63 °FPassing clouds.9 mph45%30.07 "HgN/A
3:20 PM63 °FSunny.13 mph49%30.07 "Hg10 mi
2:50 PM63 °FPassing clouds.13 mph49%30.07 "HgN/A
2:20 PM63 °FScattered clouds.9 mph52%30.07 "HgN/A
1:50 PM63 °FBroken clouds.8 mph52%30.07 "HgN/A
1:20 PM61 °FScattered clouds.9 mph59%30.07 "HgN/A
12:50 PM61 °FPassing clouds.7 mph59%30.07 "HgN/A
12:20 PM59 °FScattered clouds.9 mph59%30.09 "HgN/A
11:50 AM57 °FScattered clouds.6 mph67%30.09 "HgN/A
11:20 AM57 °FPassing clouds.7 mph67%30.09 "HgN/A
10:50 AM55 °FPassing clouds.6 mph77%30.09 "HgN/A
10:20 AM55 °FPassing clouds.5 mph77%30.09 "HgN/A
Weather by CustomWeather, © 2014

See weather overviewHow to use our weather pages